Location: Wayah Bald
(35.1806°N, 83.5603°W)
Time: 17:14:37
(UTC-05:00)

Daily predictions for brighter satellites

Satellite Brightness Start Highest point End
(mag) Time Altitude Azimuth Time Altitude Azimuth Time Altitude Azimuth
ATLAS 2AS CENTAUR R/B 3.4 17:37:30 10° NW 17:45:27 71° WSW 17:52:45 10° SSE
Cosmos 494 Rocket 4.4 17:44:29 10° NNW 17:49:43 71° WSW 17:54:56 10° S
SMAP 3.2 17:45:40 10° SSE 17:50:09 50° ENE 17:54:39 10° N
TIMED 4.5 17:48:18 10° S 17:52:39 77° ESE 17:57:01 10° NNE
CORIOLIS 4.3 17:48:59 10° SSE 17:54:11 51° ENE 17:59:24 10° N
Cosmos 1975 2.8 17:54:21 10° N 17:58:24 79° E 18:02:24 10° S
SL-24 DEB 4.5 17:54:14 10° NNE 17:58:49 50° E 18:03:18 10° SSE
Meteor 1-13 Rocket 4.4 17:55:29 10° S 18:01:01 57° E 18:06:43 10° NNE
Meteor 2-4 Rocket 4.4 17:57:03 10° SSE 18:01:39 30° E 18:06:15 10° NNE
Cosmos 1371 Rocket 4.4 17:57:00 10° S 18:02:04 45° ESE 18:07:11 10° NNE
Okean 1-7 Rocket 3.9 17:57:49 10° SSE 18:02:06 45° E 18:06:22 10° NNE
Cosmos 1812 4.3 17:58:36 10° SSW 18:02:11 38° W 18:05:48 10° N
CZ-4 R/B 1.6 18:01:55 10° S 18:06:05 78° W 18:10:12 10° NNW
MOS 1 4.3 18:00:54 10° SSE 18:06:34 82° ENE 18:12:14 10° NNW
Tiangong 1 2.8 18:04:48 10° WNW 18:07:12 21° N 18:09:19 12° NE
SPOT 3 Rocket 3.5 18:05:17 10° SSE 18:10:28 86° ENE 18:15:39 10° NNW
MSX 3.9 18:05:18 10° SSE 18:10:55 57° ENE 18:16:32 10° N
COSMOS 2487 2.7 18:10:30 10° NNW 18:14:04 74° WSW 18:17:38 10° S
AQUARIUS 4.3 18:11:28 10° S 18:15:57 82° WSW 18:20:28 10° NNW
Meteor 2-21 4.4 18:12:32 10° N 18:18:43 81° E 18:24:48 10° S
Cosmos 1340 4.3 18:16:22 10° SE 18:18:43 16° E 18:18:56 16° E
Cosmos 2297 4.5 18:19:24 10° SW 18:24:53 52° WNW 18:30:23 10° N
Cosmos 1606 Rocket 4.4 18:21:06 10° NNE 18:24:57 28° ENE 18:28:47 10° SE
NOSS 2-1 (D) 4.3 18:21:24 10° SW 18:25:02 43° NW 18:29:01 10° NNE
NOSS 2-1 (C) 4.3 18:22:02 10° SW 18:25:43 44° NW 18:29:44 10° NNE
Cosmos 2278 Rocket 4.4 18:29:23 10° WSW 18:33:34 21° WNW 18:37:48 10° N
COSMO-SKYMED 1 2.5 18:29:27 10° NNE 18:33:47 71° ESE 18:38:06 10° S
Cosmos 921 Rocket 4.1 18:31:24 10° SW 18:35:28 44° WNW 18:39:37 10° N
Meteor 2-14 Rocket 4.4 18:29:38 10° N 18:35:48 81° E 18:41:55 10° S
Cosmos 2239 Rocket 4.4 18:30:00 10° N 18:36:07 63° E 18:42:12 10° SSE
Cosmos 1025 Rocket 2.9 18:32:39 10° S 18:37:00 73° E 18:41:23 10° N
Abrixas 2.2 18:37:03 10° NW 18:40:01 84° NE 18:41:15 31° ESE
Cosmos 1666 2.9 18:36:31 10° N 18:40:16 46° E 18:44:00 10° SSE
IDEFIX/ARIANE 42P 3.7 18:36:57 10° S 18:41:55 46° W 18:46:54 10° NNW
Cosmos 1821 Rocket 3.8 18:42:38 10° N 18:48:44 77° E 18:54:50 10° S
Cosmos 1833 Rocket 2.9 18:47:07 10° NNW 18:52:45 74° WSW 18:58:20 10° SSE
Orbus 7S? 3.6 18:55:43 10° SSW 18:57:48 33° SSE 18:57:48 33° SSE
CZ-3B DEB 4.4 18:54:48 10° NW 18:59:02 22° N 19:04:32 14° NE
Cosmos 1605 Rocket 4.1 18:53:27 10° N 18:59:32 51° E 19:05:29 10° SSE
Cosmos 2058 Rocket 4.2 18:56:38 10° N 19:02:42 28° SE 19:05:05 10° SSE
USA 234 4.3 18:56:14 13° NNE 19:01:22 37° NW 19:07:14 10° W
Cosmos 2082 Rocket 3.1 18:56:39 10° NNW 19:02:07 51° WSW 19:07:35 10° S
Cosmos 1743 4.3 19:00:43 10° NNW 19:04:17 37° W 19:07:49 10° SSW
Meteor 1-28 Rocket 3.3 19:06:28 29° N 19:08:17 72° WNW 19:12:02 10° SSW
BREEZE M DEB (TANK) 3.9 19:05:45 10° W 19:12:01 28° NW 19:13:17 22° N
NOSS 3-4 (A) 3.8 19:14:29 10° NNW 19:21:39 88° ENE 19:29:13 10° SSE
NOSS 3-4 (C) 3.7 19:14:35 10° NNW 19:21:45 87° ENE 19:29:19 10° SSE
Delta 2 Rocket 3.3 19:18:33 10° W 19:21:53 69° W 19:21:53 69° W
Cosmos 407 Rocket 3.3 19:21:08 10° NNW 19:26:18 85° ENE 19:31:29 10° SSE
BREEZE M DEB (TANK) 4.2 19:25:59 10° NW 19:30:44 57° NE 19:34:19 40° E
Cosmos 1727 Rocket 3.9 19:28:08 10° S 19:34:20 85° W 19:38:31 22° N
Cosmos 2369 Rocket 2.0 19:30:38 10° SSW 19:36:17 86° ESE 19:36:50 74° NNE
NOAA 12 4.5 19:33:45 10° S 19:38:58 62° W 19:44:10 10° NNW
FALCON 9 R/B 2.9 19:27:53 10° W 19:47:49 86° S 19:49:07 65° ESE
ATLAS 3B CENTAUR R/B 3.7 19:40:30 10° W 19:57:54 51° SSW 20:00:27 40° SSE
Cosmos 1943 Rocket 3.9 19:59:15 10° S 20:01:06 22° S 20:01:06 22° S
